Location: Aytr�
(46.1357°N, 1.1145°W)
Time: 05:58:49
(UTC+00:00)

X-37B - Visible Passes

Search period start: 23 September 2021 00:00
Search period end: 03 October 2021 00:00
Orbit: 381 x 393 km, 45.0° (Epoch: 29 August)

Date Brightness Start Highest point End Pass type
(mag) Time Alt. Az. Time Alt. Az. Time Alt. Az.
23 Sep 2.7 03:59:30 18° SSE 03:59:40 18° SSE 04:01:55 10° ESE visible
24 Sep 1.5 04:36:10 24° SW 04:37:36 40° SSE 04:40:37 10° E visible
25 Sep 2.8 03:40:29 22° ESE 03:40:29 22° ESE 03:42:06 10° E visible
25 Sep 0.7 05:12:46 11° WSW 05:15:43 68° S 05:18:53 10° E visible
26 Sep 0.8 04:17:04 51° SSW 04:17:23 55° SSE 04:20:30 10° E visible
27 Sep 3.5 03:21:20 15° E 03:21:20 15° E 03:22:04 10° E visible
27 Sep 0.6 04:53:37 21° W 04:55:33 74° S 04:58:44 10° E visible
28 Sep 1.4 03:57:54 47° ESE 03:57:54 47° ESE 04:00:20 10° E visible
29 Sep 0.5 04:34:29 42° WSW 04:35:24 71° S 04:38:33 10° ESE visible
30 Sep 2.9 03:38:49 23° E 03:38:49 23° E 03:40:11 10° E visible
30 Sep 1.1 05:11:07 14° W 05:13:32 44° SSW 05:16:34 10° ESE visible
01 Oct 0.9 04:15:30 55° SSE 04:15:30 55° SSE 04:18:19 10° ESE visible
02 Oct 4.0 03:19:58 10° ESE 03:19:58 10° ESE 03:20:00 10° ESE visible
02 Oct 1.6 04:52:16 25° WSW 04:53:16 31° SSW 04:56:07 10° SE visible
